Previsão horária em Aligudarz

Hoje, 24 Novembro, Terça-feira

Tempo Temperatura Precipitação Vento Pressão Humidade
00:00 +3°C° 0 mm 0 m/s 591 mmHg 79%
01:00 +3°C° 0 mm 0 m/s 591 mmHg 81%
02:00 +2°C° 0 mm 0 m/s 590 mmHg 83%
03:00 +2°C° 0 mm 0 m/s 590 mmHg 84%
04:00 +1°C° 0 mm 0 m/s 590 mmHg 86%
05:00 +2°C° 0 mm 1 m/s 590 mmHg 87%
06:00 +2°C° 0 mm 1 m/s 590 mmHg 88%
07:00 +3°C° 0 mm 1 m/s 591 mmHg 82%
08:00 +4°C° 0 mm 1 m/s 592 mmHg 75%
09:00 +6°C° 0 mm 1 m/s 593 mmHg 68%
10:00 +7°C° 0 mm 1 m/s 593 mmHg 60%
11:00 +8°C° 0 mm 1 m/s 593 mmHg 52%
12:00 +7°C° 0 mm 0 m/s 593 mmHg 44%
13:00 +8°C° 0 mm 0 m/s 593 mmHg 41%
14:00 +9°C° 0 mm 1 m/s 593 mmHg 39%
15:00 +10°C° 0 mm 1 m/s 593 mmHg 38%
16:00 +9°C° 0 mm 1 m/s 592 mmHg 44%
17:00 +7°C° 0 mm 0 m/s 592 mmHg 51%
18:00 +6°C° 0 mm 0 m/s 592 mmHg 57%
19:00 +6°C° 0 mm 1 m/s 592 mmHg 59%
20:00 +6°C° 0 mm 1 m/s 592 mmHg 61%
21:00 +5°C° 0 mm 1 m/s 592 mmHg 64%
22:00 +5°C° 0 mm 1 m/s 592 mmHg 65%
23:00 +4°C° 0 mm 1 m/s 591 mmHg 66%

Amanhã, 25 Novembro, Quarta-feira

Tempo Temperatura Precipitação Vento Pressão Humidade
00:00 +4°C° 0 mm 1 m/s 591 mmHg 66%
01:00 +4°C° 0 mm 1 m/s 591 mmHg 65%
02:00 +3°C° 0 mm 1 m/s 591 mmHg 65%
03:00 +3°C° 0 mm 1 m/s 591 mmHg 64%
04:00 +3°C° 0 mm 1 m/s 591 mmHg 61%
05:00 +3°C° 0 mm 1 m/s 591 mmHg 58%
06:00 +3°C° 0 mm 1 m/s 591 mmHg 55%
07:00 +5°C° 0 mm 1 m/s 592 mmHg 48%
08:00 +6°C° 0 mm 1 m/s 593 mmHg 40%
09:00 +8°C° 0 mm 1 m/s 594 mmHg 33%
10:00 +9°C° 0 mm 1 m/s 594 mmHg 29%
11:00 +10°C° 0 mm 2 m/s 594 mmHg 26%
12:00 +12°C° 0 mm 2 m/s 594 mmHg 22%
13:00 +12°C° 0 mm 2 m/s 594 mmHg 23%
14:00 +11°C° 0 mm 3 m/s 594 mmHg 23%
15:00 +11°C° 0 mm 3 m/s 594 mmHg 23%
16:00 +9°C° 0 mm 3 m/s 593 mmHg 29%
17:00 +8°C° 0 mm 2 m/s 593 mmHg 35%
18:00 +7°C° 0 mm 2 m/s 592 mmHg 40%
19:00 +6°C° 0 mm 2 m/s 592 mmHg 42%
20:00 +5°C° 0 mm 2 m/s 592 mmHg 44%
21:00 +5°C° 0 mm 2 m/s 592 mmHg 45%
22:00 +4°C° 0 mm 2 m/s 591 mmHg 46%
23:00 +4°C° 0 mm 2 m/s 591 mmHg 47%

Depois de amanhã, 26 Novembro, Quinta-feira

Tempo Temperatura Precipitação Vento Pressão Humidade
00:00 +3°C° 0 mm 2 m/s 591 mmHg 48%
01:00 +3°C° 0 mm 2 m/s 591 mmHg 49%
02:00 +3°C° 0 mm 1 m/s 590 mmHg 50%
03:00 +3°C° 0 mm 1 m/s 590 mmHg 52%
04:00 +2°C° 0 mm 2 m/s 590 mmHg 51%
05:00 +2°C° 0 mm 2 m/s 590 mmHg 50%
06:00 +2°C° 0 mm 2 m/s 590 mmHg 49%
07:00 +4°C° 0 mm 2 m/s 591 mmHg 43%
08:00 +5°C° 0 mm 2 m/s 592 mmHg 37%
09:00 +7°C° 0 mm 3 m/s 593 mmHg 32%
10:00 +8°C° 0 mm 3 m/s 593 mmHg 34%
11:00 +7°C° 0 mm 4 m/s 593 mmHg 37%
12:00 +8°C° 0 mm 5 m/s 593 mmHg 40%
13:00 +6°C° 0.8 mm 5 m/s 591 mmHg 53%
14:00 +5°C° 0.8 mm 4 m/s 590 mmHg 66%
15:00 +3°C° 0.8 mm 4 m/s 589 mmHg 79%
16:00 +3°C° 2.2 mm 3 m/s 589 mmHg 84%
17:00 +2°C° 2.2 mm 3 m/s 589 mmHg 89%
18:00 +2°C° 2.2 mm 3 m/s 589 mmHg 94%
19:00 +3°C° 2.6 mm 2 m/s 589 mmHg 95%
20:00 +3°C° 2.6 mm 2 m/s 590 mmHg 96%
21:00 +4°C° 2.6 mm 1 m/s 590 mmHg 97%
22:00 +4°C° 0.6 mm 1 m/s 590 mmHg 97%
23:00 +4°C° 0.6 mm 2 m/s 590 mmHg 96%

27 Novembro, Sexta-feira

Tempo Temperatura Precipitação Vento Pressão Humidade
00:00 +4°C° 0.6 mm 2 m/s 591 mmHg 96%
01:00 +4°C° 0 mm 2 m/s 591 mmHg 95%
02:00 +3°C° 0 mm 2 m/s 591 mmHg 95%
03:00 +3°C° 0 mm 2 m/s 591 mmHg 95%
04:00 +3°C° 0 mm 2 m/s 591 mmHg 95%
05:00 +3°C° 0 mm 2 m/s 591 mmHg 95%
06:00 +3°C° 0 mm 2 m/s 591 mmHg 95%
07:00 +3°C° 0 mm 2 m/s 592 mmHg 94%
08:00 +4°C° 0 mm 2 m/s 593 mmHg 93%
09:00 +6°C° 0 mm 1 m/s 594 mmHg 92%
10:00 +6°C° 0 mm 1 m/s 594 mmHg 89%
11:00 +7°C° 0 mm 1 m/s 594 mmHg 85%
12:00 +6°C° 0 mm 2 m/s 594 mmHg 82%
13:00 +8°C° 0 mm 1 m/s 594 mmHg 79%
14:00 +8°C° 0 mm 1 m/s 594 mmHg 77%
15:00 +8°C° 0 mm 1 m/s 594 mmHg 75%
16:00 +7°C° 0 mm 1 m/s 594 mmHg 78%
17:00 +7°C° 0 mm 1 m/s 595 mmHg 81%
18:00 +6°C° 0 mm 1 m/s 595 mmHg 84%
19:00 +6°C° 0 mm 1 m/s 595 mmHg 83%
20:00 +6°C° 0 mm 1 m/s 595 mmHg 82%
21:00 +5°C° 0 mm 1 m/s 595 mmHg 81%
22:00 +5°C° 0 mm 1 m/s 595 mmHg 81%
23:00 +5°C° 0 mm 1 m/s 595 mmHg 82%

28 Novembro, Sábado

Tempo Temperatura Precipitação Vento Pressão Humidade
00:00 +5°C° 0 mm 1 m/s 595 mmHg 82%
01:00 +5°C° 0 mm 1 m/s 595 mmHg 84%
02:00 +5°C° 0 mm 1 m/s 595 mmHg 86%
03:00 +5°C° 0 mm 1 m/s 595 mmHg 88%
04:00 +5°C° 0.2 mm 1 m/s 595 mmHg 89%
05:00 +5°C° 0.2 mm 1 m/s 595 mmHg 90%
06:00 +5°C° 0.2 mm 1 m/s 595 mmHg 92%
07:00 +5°C° 0.1 mm 1 m/s 595 mmHg 91%
08:00 +6°C° 0.1 mm 1 m/s 595 mmHg 90%
09:00 +6°C° 0.1 mm 1 m/s 596 mmHg 89%
10:00 +5°C° 0.5 mm 2 m/s 595 mmHg 90%
11:00 +5°C° 0.5 mm 2 m/s 595 mmHg 90%
12:00 +5°C° 0.5 mm 2 m/s 594 mmHg 90%
13:00 +5°C° 1 mm 2 m/s 594 mmHg 91%
14:00 +5°C° 1 mm 2 m/s 594 mmHg 91%
15:00 +6°C° 1 mm 1 m/s 593 mmHg 92%
16:00 +6°C° 1.5 mm 1 m/s 593 mmHg 92%
17:00 +5°C° 1.5 mm 2 m/s 593 mmHg 93%
18:00 +4°C° 1.5 mm 2 m/s 593 mmHg 93%
19:00 +4°C° 1.4 mm 2 m/s 593 mmHg 93%
20:00 +4°C° 1.4 mm 2 m/s 593 mmHg 93%
21:00 +4°C° 1.4 mm 2 m/s 593 mmHg 93%
22:00 +5°C° 0.6 mm 2 m/s 593 mmHg 93%
23:00 +5°C° 0.6 mm 2 m/s 593 mmHg 93%

29 Novembro, Domingo

Tempo Temperatura Precipitação Vento Pressão Humidade
00:00 +5°C° 0.6 mm 2 m/s 592 mmHg 92%
01:00 +5°C° 1.9 mm 2 m/s 592 mmHg 93%
02:00 +4°C° 1.9 mm 2 m/s 592 mmHg 94%
03:00 +5°C° 1.9 mm 1 m/s 592 mmHg 95%
04:00 +5°C° 3.4 mm 1 m/s 591 mmHg 96%
05:00 +4°C° 3.4 mm 1 m/s 591 mmHg 96%
06:00 +4°C° 3.4 mm 1 m/s 591 mmHg 97%
07:00 +4°C° 1.6 mm 1 m/s 591 mmHg 97%
08:00 +4°C° 1.6 mm 1 m/s 591 mmHg 97%
09:00 +3°C° 1.6 mm 0 m/s 591 mmHg 97%
10:00 +4°C° 2.8 mm 1 m/s 591 mmHg 97%
11:00 +3°C° 2.8 mm 1 m/s 590 mmHg 98%
12:00 +3°C° 2.8 mm 1 m/s 590 mmHg 98%
13:00 +3°C° 2.1 mm 1 m/s 590 mmHg 98%
14:00 +3°C° 2.1 mm 1 m/s 590 mmHg 99%
15:00 +3°C° 2.1 mm 1 m/s 590 mmHg 99%
16:00 +3°C° 0.2 mm 1 m/s 590 mmHg 99%
17:00 +2°C° 0.2 mm 0 m/s 590 mmHg 99%
18:00 +3°C° 0.2 mm 0 m/s 590 mmHg 98%
19:00 +3°C° 1.5 mm 1 m/s 590 mmHg 99%
20:00 +3°C° 1.5 mm 1 m/s 590 mmHg 99%
21:00 +2°C° 1.5 mm 2 m/s 590 mmHg 99%
22:00 +2°C° 3.1 mm 2 m/s 590 mmHg 99%
23:00 +1°C° 3.1 mm 2 m/s 590 mmHg 99%
Mostrar mais